Regional Weather Roundup
Issued by NWS Cleveland, OH

Home | Current Version | Previous Version | Graphics & Text | Print | Product List | Glossary Off
Versions: 1 2 3 4 5 6 7 8 9 10 11 12 13 14 15 16 17 18 19 20 21 22 23 24 25 26 27 28 29 30 31 32 33 34 35 36 37 38 39 40 41 42 43 44 45 46 47 48 49 50

000
ASUS41 KCLE 300010
RWRCLE
OHIO REGIONAL WEATHER ROUNDUP
NATIONAL WEATHER SERVICE WILMINGTON, OH
800 PM EDT WED JUL 29 2015

NOTE: "FAIR" INDICATES FEW OR NO CLOUDS BELOW 12,000 FEET WITH NO
SIGNIFICANT WEATHER AND/OR OBSTRUCTIONS TO VISIBILITY.

OHZ001>008-015>018-024>027-034-035-043-044-300100-
   NORTHWEST OHIO

CITY           SKY/WX    TMP DP  RH WIND       PRES   REMARKS
DEFIANCE       CLEAR     85  71  63 NW13      29.92R HX  90
FINDLAY        LGT RAIN  74  70  87 S5        29.93R FOG
TOLEDO EXPRESS MOCLDY    80  76  87 SW5       29.90S
TOLEDO EXEC    MOCLDY    81  73  76 SW9       29.91S
LIMA           LGT RAIN  80  74  81 W7        29.95R
$$

OHZ009>014-019>023-028>033-038-089-300100-
   NORTHEAST OHIO

CITY           SKY/WX    TMP DP  RH WIND       PRES   REMARKS
CLE-HOPKINS    RAIN      76  73  91 W17       29.95R FOG
CLE-LAKEFRONT  CLOUDY    80  73  79 NW12G22   29.90R
CUY CO. ARPT   CLOUDY    86  68  54 CALM      29.91S
LORAIN-ELYRIA  RAIN      75  73  93 W9        29.94R FOG
ASHTABULA      MOCLDY    80  69  69 CALM      29.92S
AKRON-CANTON   MOCLDY    85  70  60 SW5       29.94S
WOOSTER        MOCLDY    82  72  71 SW3       29.95R
MANSFIELD      CLOUDY    77  74  90 W5        29.96R
YOUNGSTOWN     CLOUDY    81  69  67 SW3       29.94R
$$

OHZ042-051>053-060>062-070>072-077>081-300100-
  SOUTHWEST OHIO

CITY           SKY/WX    TMP DP  RH WIND       PRES   REMARKS
CINC-COVINGTON CLOUDY    77  74  90 S10       29.97R FOG
CINC-LUNKEN    LGT RAIN  77  75  93 CALM      29.95S
HAMILTON       CLOUDY    80  75  84 NE3       29.96R
DAYTON         MOCLDY    79  74  84 S7        29.96R
WRIGHT-PAT AFB MOCLDY    79  75  88 SE3       29.94F
DAYTON GENERAL CLOUDY    78  74  87 S6        29.95S
WILMINGTON     CLOUDY    76  72  87 SW3       29.95S
$$

OHZ036-037-039>041-045>050-054>059-063>069-073>076-082>088-300100-
  CENTRAL AND SOUTHEAST OHIO

CITY           SKY/WX    TMP DP  RH WIND       PRES   REMARKS
COLUMBUS       LGT RAIN  75  72  90 SE5       29.94S
OSU AIRPORT    LGT RAIN  75  73  93 CALM      29.95S
BOLTON FIELD   CLOUDY    75  74  98 CALM      29.96S
RICKENBACK AFB LGT RAIN  74  72  92 CALM      29.94F
NEWARK         LGT RAIN  78  70  76 W16G28    29.95R
MARION         CLOUDY    78  73  84 SW6       29.95R
LANCASTER      TSTM      76  72  87 NW3       29.95R FOG
ZANESVILLE     PTCLDY    83  72  69 CALM      29.93S HAZE
NEW PHILLY     PTCLDY    82  75  79 CALM      29.93S
$$


USA.gov is the U.S. government's official web portal to all federal, state and local government web resources and services.